Jilin-1 GaoFen 06A 15 xing

operational
NORAD ID: 57026 Int'l Des: NNA 2023-085 Owner: CGSTL Country: CN Constellation: jilin-1
LEOCIRCULARRETROGRADESSO

About Jilin-1 GaoFen 06A 15 xing

Description loading...

Live Position

Loading 3D Globe...

Upcoming Passes

Altitude History

Altitude vs Time

uPlot chart will show altitude changes over time

Two-Line Element Set

1 57026U 23085Y 25298.53814306 .00020367 00000-0 77160-3 0 9996
2 57026 97.4863 44.4875 0006865 169.5038 190.6345 15.26912691130901
Epoch: Oct 25, 2025 • Age: 9 hours

Current Status

Altitude 483.1 km
Velocity 7.63 km/s
Sub-Earth Point 20.73°N, 128.95°W
Launch Date Jun 15, 2023
Age 2.3 years
Type other

Technical Details

Classification Payload
Mass 42.00 kg
Dry Mass 42.00 kg
Total Mass 42.00 kg
Length 1.50 m
Diameter 1.00 m
Span 1.50 m
Shape Box
Manufacturer CGSTL
Bus Type JL-1
Phase Status In Orbit
Owner/State CGSTL/CN

Large Constellations

Loading constellations...